Year,Month,Day,Hour,Minute,Value (Times are PST for temperature in C)
2011,04,19,00,00,6.20
2011,04,19,00,01,6.20
2011,04,19,00,02,6.20
2011,04,19,00,03,6.20
2011,04,19,00,04,6.20
2011,04,19,00,05,6.20
2011,04,19,00,06,6.20
2011,04,19,00,07,6.20
2011,04,19,00,08,6.20
2011,04,19,00,09,6.20
2011,04,19,00,10,6.20
2011,04,19,00,11,6.20
2011,04,19,00,12,6.20
2011,04,19,00,13,6.10
2011,04,19,00,14,6.10
2011,04,19,00,15,6.10
2011,04,19,00,16,6.10
2011,04,19,00,17,6.10
2011,04,19,00,18,6.10
2011,04,19,00,19,6.10
2011,04,19,00,20,6.10
2011,04,19,00,21,6.10
2011,04,19,00,22,6.10
2011,04,19,00,23,6.10
2011,04,19,00,24,6.10
2011,04,19,00,25,6.10
2011,04,19,00,26,6.10
2011,04,19,00,27,6.10
2011,04,19,00,28,6.10
2011,04,19,00,29,6.10
2011,04,19,00,30,6.10
2011,04,19,00,31,6.10
2011,04,19,00,32,6.10
2011,04,19,00,33,6.00
2011,04,19,00,34,6.00
2011,04,19,00,35,6.00
2011,04,19,00,36,5.90
2011,04,19,00,37,5.90
2011,04,19,00,38,5.90
2011,04,19,00,39,5.90
2011,04,19,00,40,5.90
2011,04,19,00,41,5.90
2011,04,19,00,42,5.90
2011,04,19,00,43,5.90
2011,04,19,00,44,5.90
2011,04,19,00,45,5.90
2011,04,19,00,46,5.90
2011,04,19,00,47,5.90
2011,04,19,00,48,5.90
2011,04,19,00,49,5.90
2011,04,19,00,50,5.90
2011,04,19,00,51,5.90
2011,04,19,00,52,5.90
2011,04,19,00,53,5.80
2011,04,19,00,54,5.80
2011,04,19,00,55,5.80
2011,04,19,00,56,5.80
2011,04,19,00,57,5.80
2011,04,19,00,58,5.80
2011,04,19,00,59,5.80
2011,04,19,01,00,5.80
2011,04,19,01,01,5.80
2011,04,19,01,02,5.80
2011,04,19,01,03,5.80
2011,04,19,01,04,5.80
2011,04,19,01,05,5.70
2011,04,19,01,06,5.70
2011,04,19,01,07,5.70
2011,04,19,01,08,5.60
2011,04,19,01,09,5.60
2011,04,19,01,10,5.70
2011,04,19,01,11,5.70
2011,04,19,01,12,5.70
2011,04,19,01,13,5.70
2011,04,19,01,14,5.70
2011,04,19,01,15,5.70
2011,04,19,01,16,5.70
2011,04,19,01,17,5.70
2011,04,19,01,18,5.70
2011,04,19,01,19,5.70
2011,04,19,01,20,5.60
2011,04,19,01,21,5.60
2011,04,19,01,22,5.60
2011,04,19,01,23,5.60
2011,04,19,01,24,5.70
2011,04,19,01,25,5.70
2011,04,19,01,26,5.70
2011,04,19,01,27,5.70
2011,04,19,01,28,5.60
2011,04,19,01,29,5.60
2011,04,19,01,30,5.50
2011,04,19,01,31,5.50
2011,04,19,01,32,5.40
2011,04,19,01,33,5.40
2011,04,19,01,34,5.50
2011,04,19,01,35,5.40
2011,04,19,01,36,5.40
2011,04,19,01,37,5.40
2011,04,19,01,38,5.40
2011,04,19,01,39,5.40
2011,04,19,01,40,5.30
2011,04,19,01,41,5.30
2011,04,19,01,42,5.30
2011,04,19,01,43,5.40
2011,04,19,01,44,5.50
2011,04,19,01,45,5.50
2011,04,19,01,46,5.40
2011,04,19,01,47,5.30
2011,04,19,01,48,5.30
2011,04,19,01,49,5.20
2011,04,19,01,50,5.10
2011,04,19,01,51,5.10
2011,04,19,01,52,5.00
2011,04,19,01,53,5.00
2011,04,19,01,54,5.00
2011,04,19,01,55,5.00
2011,04,19,01,56,4.90
2011,04,19,01,57,4.80
2011,04,19,01,58,4.70
2011,04,19,01,59,4.70
2011,04,19,02,00,4.70
2011,04,19,02,01,4.50
2011,04,19,02,02,4.50
2011,04,19,02,03,4.40
2011,04,19,02,04,4.30
2011,04,19,02,05,4.30
2011,04,19,02,06,4.30
2011,04,19,02,07,4.20
2011,04,19,02,08,4.10
2011,04,19,02,09,4.00
2011,04,19,02,10,3.80
2011,04,19,02,11,3.70
2011,04,19,02,12,3.60
2011,04,19,02,13,3.50
2011,04,19,02,14,3.40
2011,04,19,02,15,3.30
2011,04,19,02,16,3.30
2011,04,19,02,17,3.20
2011,04,19,02,18,3.20
2011,04,19,02,19,3.10
2011,04,19,02,20,3.10
2011,04,19,02,21,3.10
2011,04,19,02,22,3.00
2011,04,19,02,23,3.00
2011,04,19,02,24,3.00
2011,04,19,02,25,2.90
2011,04,19,02,26,2.90
2011,04,19,02,27,2.80
2011,04,19,02,28,2.80
2011,04,19,02,29,2.80
2011,04,19,02,30,2.70
2011,04,19,02,31,2.70
2011,04,19,02,32,2.70
2011,04,19,02,33,2.70
2011,04,19,02,34,2.60
2011,04,19,02,35,2.60
2011,04,19,02,36,2.50
2011,04,19,02,37,2.50
2011,04,19,02,38,2.50
2011,04,19,02,39,2.50
2011,04,19,02,40,2.60
2011,04,19,02,41,2.60
2011,04,19,02,42,2.60
2011,04,19,02,43,2.60
2011,04,19,02,44,2.50
2011,04,19,02,45,2.40
2011,04,19,02,46,2.40
2011,04,19,02,47,2.40
2011,04,19,02,48,2.30
2011,04,19,02,49,2.30
2011,04,19,02,50,2.30
2011,04,19,02,51,2.20
2011,04,19,02,52,2.20
2011,04,19,02,53,2.20
2011,04,19,02,54,2.20
2011,04,19,02,55,2.20
2011,04,19,02,56,2.30
2011,04,19,02,57,2.30
2011,04,19,02,58,2.30
2011,04,19,02,59,2.30
2011,04,19,03,00,2.30
2011,04,19,03,01,2.30
2011,04,19,03,02,2.30
2011,04,19,03,03,2.30
2011,04,19,03,04,2.20
2011,04,19,03,05,2.20
2011,04,19,03,06,2.10
2011,04,19,03,07,2.10
2011,04,19,03,08,2.10
2011,04,19,03,09,2.10
2011,04,19,03,10,2.00
2011,04,19,03,11,2.00
2011,04,19,03,12,2.00
2011,04,19,03,13,2.00
2011,04,19,03,14,1.90
2011,04,19,03,15,1.90
2011,04,19,03,16,1.80
2011,04,19,03,17,1.80
2011,04,19,03,18,1.70
2011,04,19,03,19,1.70
2011,04,19,03,20,1.70
2011,04,19,03,21,1.70
2011,04,19,03,22,1.70
2011,04,19,03,23,1.70
2011,04,19,03,24,1.70
2011,04,19,03,25,1.70
2011,04,19,03,26,1.70
2011,04,19,03,27,1.70
2011,04,19,03,28,1.70
2011,04,19,03,29,1.70
2011,04,19,03,30,1.70
2011,04,19,03,31,1.70
2011,04,19,03,32,1.70
2011,04,19,03,33,1.60
2011,04,19,03,34,1.60
2011,04,19,03,35,1.50
2011,04,19,03,36,1.40
2011,04,19,03,37,1.40
2011,04,19,03,38,1.30
2011,04,19,03,39,1.30
2011,04,19,03,40,1.30
2011,04,19,03,41,1.30
2011,04,19,03,42,1.30
2011,04,19,03,43,1.30
2011,04,19,03,44,1.30
2011,04,19,03,45,1.30
2011,04,19,03,46,1.30
2011,04,19,03,47,1.30
2011,04,19,03,48,1.30
2011,04,19,03,49,1.30
2011,04,19,03,50,1.30
2011,04,19,03,51,1.30
2011,04,19,03,52,1.30
2011,04,19,03,53,1.30
2011,04,19,03,54,1.30
2011,04,19,03,55,1.30
2011,04,19,03,56,1.30
2011,04,19,03,57,1.30
2011,04,19,03,58,1.30
2011,04,19,03,59,1.30
2011,04,19,04,00,1.30
2011,04,19,04,01,1.30
2011,04,19,04,02,1.30
2011,04,19,04,03,1.30
2011,04,19,04,04,1.30
2011,04,19,04,05,1.30
2011,04,19,04,06,1.30
2011,04,19,04,07,1.30
2011,04,19,04,08,1.30
2011,04,19,04,09,1.30
2011,04,19,04,10,1.30
2011,04,19,04,11,1.30
2011,04,19,04,12,1.30
2011,04,19,04,13,1.30
2011,04,19,04,14,1.30
2011,04,19,04,15,1.30
2011,04,19,04,16,1.30
2011,04,19,04,17,1.20
2011,04,19,04,18,1.20
2011,04,19,04,19,1.20
2011,04,19,04,20,1.10
2011,04,19,04,21,1.10
2011,04,19,04,22,1.00
2011,04,19,04,23,1.00
2011,04,19,04,24,1.00
2011,04,19,04,25,0.90
2011,04,19,04,26,0.90
2011,04,19,04,27,0.90
2011,04,19,04,28,0.90
2011,04,19,04,29,0.80
2011,04,19,04,30,0.80
2011,04,19,04,31,0.90
2011,04,19,04,32,0.90
2011,04,19,04,33,0.90
2011,04,19,04,34,0.90
2011,04,19,04,35,0.90
2011,04,19,04,36,1.00
2011,04,19,04,37,1.00
2011,04,19,04,38,0.90
2011,04,19,04,39,0.90
2011,04,19,04,40,0.90
2011,04,19,04,41,0.90
2011,04,19,04,42,0.90
2011,04,19,04,43,0.80
2011,04,19,04,44,0.80
2011,04,19,04,45,0.80
2011,04,19,04,46,0.80
2011,04,19,04,47,0.80
2011,04,19,04,48,0.80
2011,04,19,04,49,0.80
2011,04,19,04,50,0.70
2011,04,19,04,51,0.70
2011,04,19,04,52,0.70
2011,04,19,04,53,0.70
2011,04,19,04,54,0.70
2011,04,19,04,55,0.70
2011,04,19,04,56,0.70
2011,04,19,04,57,0.70
2011,04,19,04,58,0.70
2011,04,19,04,59,0.70
2011,04,19,05,00,0.70
2011,04,19,05,01,0.70
2011,04,19,05,02,0.70
2011,04,19,05,03,0.70
2011,04,19,05,04,0.70
2011,04,19,05,05,0.80
2011,04,19,05,06,0.80
2011,04,19,05,07,0.80
2011,04,19,05,08,0.80
2011,04,19,05,09,0.90
2011,04,19,05,10,0.90
2011,04,19,05,11,0.90
2011,04,19,05,12,0.90
2011,04,19,05,13,0.90
2011,04,19,05,14,0.90
2011,04,19,05,15,1.00
2011,04,19,05,16,1.10
2011,04,19,05,17,1.10
2011,04,19,05,18,1.20
2011,04,19,05,19,1.20
2011,04,19,05,20,1.20
2011,04,19,05,21,1.20
2011,04,19,05,22,1.20
2011,04,19,05,23,1.10
2011,04,19,05,24,1.10
2011,04,19,05,25,1.10
2011,04,19,05,26,1.00
2011,04,19,05,27,1.00
2011,04,19,05,28,1.00
2011,04,19,05,29,1.00
2011,04,19,05,30,1.00
2011,04,19,05,31,1.00
2011,04,19,05,32,1.00
2011,04,19,05,33,1.10
2011,04,19,05,34,1.10
2011,04,19,05,35,1.10
2011,04,19,05,36,1.20
2011,04,19,05,37,1.30
2011,04,19,05,38,1.30
2011,04,19,05,39,1.30
2011,04,19,05,40,1.30
2011,04,19,05,41,1.30
2011,04,19,05,42,1.30
2011,04,19,05,43,1.30
2011,04,19,05,44,1.30
2011,04,19,05,45,1.30
2011,04,19,05,46,1.30
2011,04,19,05,47,1.30
2011,04,19,05,48,1.30
2011,04,19,05,49,1.30
2011,04,19,05,50,1.40
2011,04,19,05,51,1.40
2011,04,19,05,52,1.50
2011,04,19,05,53,1.50
2011,04,19,05,54,1.50
2011,04,19,05,55,1.40
2011,04,19,05,56,1.40
2011,04,19,05,57,1.40
2011,04,19,05,58,1.50
2011,04,19,05,59,1.60
2011,04,19,06,00,1.70
2011,04,19,06,01,1.80
2011,04,19,06,02,1.90
2011,04,19,06,03,2.00
2011,04,19,06,04,2.10
2011,04,19,06,05,2.10
2011,04,19,06,06,2.10
2011,04,19,06,07,2.00
2011,04,19,06,08,2.00
2011,04,19,06,09,1.90
2011,04,19,06,10,1.90
2011,04,19,06,11,1.90
2011,04,19,06,12,1.80
2011,04,19,06,13,1.90
2011,04,19,06,14,1.90
2011,04,19,06,15,1.90
2011,04,19,06,16,2.00
2011,04,19,06,17,2.00
2011,04,19,06,18,2.10
2011,04,19,06,19,2.10
2011,04,19,06,20,2.10
2011,04,19,06,21,2.00
2011,04,19,06,22,2.00
2011,04,19,06,23,2.00
2011,04,19,06,24,2.10
2011,04,19,06,25,2.00
2011,04,19,06,26,2.00
2011,04,19,06,27,2.00
2011,04,19,06,28,1.90
2011,04,19,06,29,1.90
2011,04,19,06,30,1.90
2011,04,19,06,31,1.90
2011,04,19,06,32,1.90
2011,04,19,06,33,1.90
2011,04,19,06,34,2.00
2011,04,19,06,35,2.00
2011,04,19,06,36,2.00
2011,04,19,06,37,2.10
2011,04,19,06,38,2.20
2011,04,19,06,39,2.30
2011,04,19,06,40,2.40
2011,04,19,06,41,2.40
2011,04,19,06,42,2.40
2011,04,19,06,43,2.50
2011,04,19,06,44,2.50
2011,04,19,06,45,2.50
2011,04,19,06,46,2.50
2011,04,19,06,47,2.50
2011,04,19,06,48,2.50
2011,04,19,06,49,2.40
2011,04,19,06,50,2.40
2011,04,19,06,51,2.40
2011,04,19,06,52,2.30
2011,04,19,06,53,2.20
2011,04,19,06,54,2.10
2011,04,19,06,55,2.00
2011,04,19,06,56,2.00
2011,04,19,06,57,1.90
2011,04,19,06,58,1.90
2011,04,19,06,59,1.80
2011,04,19,07,00,1.80
2011,04,19,07,01,1.80
2011,04,19,07,02,1.70
2011,04,19,07,03,1.70
2011,04,19,07,04,1.70
2011,04,19,07,05,1.80
2011,04,19,07,06,1.80
2011,04,19,07,07,1.80
2011,04,19,07,08,1.80
2011,04,19,07,09,1.90
2011,04,19,07,10,1.90
2011,04,19,07,11,2.00
2011,04,19,07,12,2.10
2011,04,19,07,13,2.10
2011,04,19,07,14,2.20
2011,04,19,07,15,2.20
2011,04,19,07,16,2.30
2011,04,19,07,17,2.40
2011,04,19,07,18,2.50
2011,04,19,07,19,2.50
2011,04,19,07,20,2.60
2011,04,19,07,21,2.70
2011,04,19,07,22,2.80
2011,04,19,07,23,2.80
2011,04,19,07,24,2.90
2011,04,19,07,25,3.00
2011,04,19,07,26,3.10
2011,04,19,07,27,3.20
2011,04,19,07,28,3.30
2011,04,19,07,29,3.40
2011,04,19,07,30,3.50
2011,04,19,07,31,3.60
2011,04,19,07,32,3.70
2011,04,19,07,33,3.80
2011,04,19,07,34,3.90
2011,04,19,07,35,4.00
2011,04,19,07,36,4.10
2011,04,19,07,37,4.20
2011,04,19,07,38,4.30
2011,04,19,07,39,4.30
2011,04,19,07,40,4.40
2011,04,19,07,41,4.50
2011,04,19,07,42,4.50
2011,04,19,07,43,4.60
2011,04,19,07,44,4.70
2011,04,19,07,45,4.70
2011,04,19,07,46,4.80
2011,04,19,07,47,4.80
2011,04,19,07,48,4.90
2011,04,19,07,49,4.90
2011,04,19,07,50,5.00
2011,04,19,07,51,5.10
2011,04,19,07,52,5.10
2011,04,19,07,53,5.20
2011,04,19,07,54,5.20
2011,04,19,07,55,5.30
2011,04,19,07,56,5.30
2011,04,19,07,57,5.40
2011,04,19,07,58,5.40
2011,04,19,07,59,5.50
2011,04,19,08,00,5.60
2011,04,19,08,01,5.60
2011,04,19,08,02,5.60
2011,04,19,08,03,5.60
2011,04,19,08,04,5.60
2011,04,19,08,05,5.70
2011,04,19,08,06,5.70
2011,04,19,08,07,5.70
2011,04,19,08,08,5.80
2011,04,19,08,09,5.80
2011,04,19,08,10,5.90
2011,04,19,08,11,5.90
2011,04,19,08,12,5.90
2011,04,19,08,13,6.00
2011,04,19,08,14,6.00
2011,04,19,08,15,6.10
2011,04,19,08,16,6.10
2011,04,19,08,17,6.10
2011,04,19,08,18,6.20
2011,04,19,08,19,6.20
2011,04,19,08,20,6.20
2011,04,19,08,21,6.20
2011,04,19,08,22,6.30
2011,04,19,08,23,6.30
2011,04,19,08,24,6.30
2011,04,19,08,25,6.30
2011,04,19,08,26,6.30
2011,04,19,08,27,6.30
2011,04,19,08,28,6.30
2011,04,19,08,29,6.30
2011,04,19,08,30,6.40
2011,04,19,08,31,6.40
2011,04,19,08,32,6.40
2011,04,19,08,33,6.50
2011,04,19,08,34,6.60
2011,04,19,08,35,6.60
2011,04,19,08,36,6.60
2011,04,19,08,37,6.70
2011,04,19,08,38,6.70
2011,04,19,08,39,6.70
2011,04,19,08,40,6.80
2011,04,19,08,41,6.80
2011,04,19,08,42,6.70
2011,04,19,08,43,6.70
2011,04,19,08,44,6.80
2011,04,19,08,45,6.80
2011,04,19,08,46,6.90
2011,04,19,08,47,7.00
2011,04,19,08,48,7.00
2011,04,19,08,49,7.10
2011,04,19,08,50,7.20
2011,04,19,08,51,7.10
2011,04,19,08,52,7.10
2011,04,19,08,53,7.10
2011,04,19,08,54,7.10
2011,04,19,08,55,7.10
2011,04,19,08,56,7.10
2011,04,19,08,57,7.20
2011,04,19,08,58,7.20
2011,04,19,08,59,7.20
2011,04,19,09,00,7.20
2011,04,19,09,01,7.20
2011,04,19,09,02,7.30
2011,04,19,09,03,7.30
2011,04,19,09,04,7.40
2011,04,19,09,05,7.50
2011,04,19,09,06,7.60
2011,04,19,09,07,7.60
2011,04,19,09,08,7.60
2011,04,19,09,09,7.60
2011,04,19,09,10,7.60
2011,04,19,09,11,7.70
2011,04,19,09,12,7.70
2011,04,19,09,13,7.70
2011,04,19,09,14,7.70
2011,04,19,09,15,7.80
2011,04,19,09,16,7.80
2011,04,19,09,17,7.80
2011,04,19,09,18,7.80
2011,04,19,09,19,7.80
2011,04,19,09,20,7.80
2011,04,19,09,21,7.80
2011,04,19,09,22,7.80
2011,04,19,09,23,7.80
2011,04,19,09,24,7.80
2011,04,19,09,25,7.90
2011,04,19,09,26,7.90
2011,04,19,09,27,8.00
2011,04,19,09,28,8.00
2011,04,19,09,29,8.10
2011,04,19,09,30,8.10
2011,04,19,09,31,8.10
2011,04,19,09,32,8.20
2011,04,19,09,33,8.20
2011,04,19,09,34,8.30
2011,04,19,09,35,8.30
2011,04,19,09,36,8.40
2011,04,19,09,37,8.40
2011,04,19,09,38,8.40
2011,04,19,09,39,8.40
2011,04,19,09,40,8.40
2011,04,19,09,41,8.50
2011,04,19,09,42,8.50
2011,04,19,09,43,8.40
2011,04,19,09,44,8.40
2011,04,19,09,45,8.50
2011,04,19,09,46,8.50
2011,04,19,09,47,8.60
2011,04,19,09,48,8.70
2011,04,19,09,49,8.60
2011,04,19,09,50,8.50
2011,04,19,09,51,8.60
2011,04,19,09,52,8.60
2011,04,19,09,53,8.70
2011,04,19,09,54,8.60
2011,04,19,09,55,8.70
2011,04,19,09,56,8.80
2011,04,19,09,57,8.90
2011,04,19,09,58,9.00
2011,04,19,09,59,9.10
2011,04,19,10,00,9.20
2011,04,19,10,01,9.20
2011,04,19,10,02,9.20
2011,04,19,10,03,9.30
2011,04,19,10,04,9.40
2011,04,19,10,05,9.50
2011,04,19,10,06,9.60
2011,04,19,10,07,9.50
2011,04,19,10,08,9.40
2011,04,19,10,09,9.30
2011,04,19,10,10,9.20
2011,04,19,10,11,9.00
2011,04,19,10,12,8.90
2011,04,19,10,13,8.90
2011,04,19,10,14,8.90
2011,04,19,10,15,9.00
2011,04,19,10,16,9.00
2011,04,19,10,17,9.10
2011,04,19,10,18,9.20
2011,04,19,10,19,9.30
2011,04,19,10,20,9.40
2011,04,19,10,21,9.50
2011,04,19,10,22,9.60
2011,04,19,10,23,9.70
2011,04,19,10,24,9.60
2011,04,19,10,25,9.60
2011,04,19,10,26,9.50
2011,04,19,10,27,9.50
2011,04,19,10,28,9.40
2011,04,19,10,29,9.40
2011,04,19,10,30,9.40
2011,04,19,10,31,9.30
2011,04,19,10,32,9.30
2011,04,19,10,33,9.30
2011,04,19,10,34,9.30
2011,04,19,10,35,9.30
2011,04,19,10,36,9.30
2011,04,19,10,37,9.20
2011,04,19,10,38,9.20
2011,04,19,10,39,9.20
2011,04,19,10,40,9.20
2011,04,19,10,41,9.10
2011,04,19,10,42,9.00
2011,04,19,10,43,8.90
2011,04,19,10,44,8.90
2011,04,19,10,45,8.90
2011,04,19,10,46,8.80
2011,04,19,10,47,8.80
2011,04,19,10,48,8.80
2011,04,19,10,49,8.70
2011,04,19,10,50,8.70
2011,04,19,10,51,8.60
2011,04,19,10,52,8.60
2011,04,19,10,53,8.50
2011,04,19,10,54,8.50
2011,04,19,10,55,8.50
2011,04,19,10,56,8.50
2011,04,19,10,57,8.40
2011,04,19,10,58,8.40
2011,04,19,10,59,8.40
2011,04,19,11,00,8.40
2011,04,19,11,01,8.40
2011,04,19,11,02,8.30
2011,04,19,11,03,8.30
2011,04,19,11,04,8.30
2011,04,19,11,05,8.20
2011,04,19,11,06,8.20
2011,04,19,11,07,8.20
2011,04,19,11,08,8.30
2011,04,19,11,09,8.30
2011,04,19,11,10,8.30
2011,04,19,11,11,8.40
2011,04,19,11,12,8.40
2011,04,19,11,13,8.50
2011,04,19,11,14,8.50
2011,04,19,11,15,8.50
2011,04,19,11,16,8.40
2011,04,19,11,17,8.40
2011,04,19,11,18,8.40
2011,04,19,11,19,8.30
2011,04,19,11,20,8.40
2011,04,19,11,21,8.40
2011,04,19,11,22,8.40
2011,04,19,11,23,8.40
2011,04,19,11,24,8.30
2011,04,19,11,25,8.30
2011,04,19,11,26,8.30
2011,04,19,11,27,8.40
2011,04,19,11,28,8.40
2011,04,19,11,29,8.50
2011,04,19,11,30,8.50
2011,04,19,11,31,8.60
2011,04,19,11,32,8.60
2011,04,19,11,33,8.60
2011,04,19,11,34,8.60
2011,04,19,11,35,8.60
2011,04,19,11,36,8.60
2011,04,19,11,37,8.50
2011,04,19,11,38,8.40
2011,04,19,11,39,8.40
2011,04,19,11,40,8.30
2011,04,19,11,41,8.30
2011,04,19,11,42,8.30
2011,04,19,11,43,8.30
2011,04,19,11,44,8.30
2011,04,19,11,45,8.30
2011,04,19,11,46,8.30
2011,04,19,11,47,8.30
2011,04,19,11,48,8.30
2011,04,19,11,49,8.40
2011,04,19,11,50,8.50
2011,04,19,11,51,8.50
2011,04,19,11,52,8.60
2011,04,19,11,53,8.50
2011,04,19,11,54,8.50
2011,04,19,11,55,8.60
2011,04,19,11,56,8.60
2011,04,19,11,57,8.70
2011,04,19,11,58,8.70
2011,04,19,11,59,8.70
2011,04,19,12,00,8.80
2011,04,19,12,01,8.80
2011,04,19,12,02,8.80
2011,04,19,12,03,8.80
2011,04,19,12,04,8.80
2011,04,19,12,05,8.80
2011,04,19,12,06,8.80
2011,04,19,12,07,8.90
2011,04,19,12,08,8.90
2011,04,19,12,09,8.90
2011,04,19,12,10,9.00
2011,04,19,12,11,9.00
2011,04,19,12,12,9.00
2011,04,19,12,13,9.00
2011,04,19,12,14,9.00
2011,04,19,12,15,9.00
2011,04,19,12,16,9.10
2011,04,19,12,17,9.40
2011,04,19,12,18,9.70
2011,04,19,12,19,9.90
2011,04,19,12,20,10.10
2011,04,19,12,21,10.20
2011,04,19,12,22,10.50
2011,04,19,12,23,10.60
2011,04,19,12,24,10.60
2011,04,19,12,25,10.70
2011,04,19,12,26,10.80
2011,04,19,12,27,11.00
2011,04,19,12,28,11.20
2011,04,19,12,29,11.20
2011,04,19,12,30,11.10
2011,04,19,12,31,11.20
2011,04,19,12,32,11.20
2011,04,19,12,33,11.10
2011,04,19,12,34,11.10
2011,04,19,12,35,11.10
2011,04,19,12,36,10.90
2011,04,19,12,37,11.00
2011,04,19,12,38,11.00
2011,04,19,12,39,11.00
2011,04,19,12,40,11.10
2011,04,19,12,41,11.20
2011,04,19,12,42,11.30
2011,04,19,12,43,11.20
2011,04,19,12,44,11.20
2011,04,19,12,45,11.30
2011,04,19,12,46,11.40
2011,04,19,12,47,11.40
2011,04,19,12,48,11.40
2011,04,19,12,49,11.50
2011,04,19,12,50,11.40
2011,04,19,12,51,11.40
2011,04,19,12,52,11.30
2011,04,19,12,53,11.20
2011,04,19,12,54,11.10
2011,04,19,12,55,11.20
2011,04,19,12,56,11.20
2011,04,19,12,57,11.10
2011,04,19,12,58,11.10
2011,04,19,12,59,11.20
2011,04,19,13,00,11.30
2011,04,19,13,01,11.40
2011,04,19,13,02,11.40
2011,04,19,13,03,11.40
2011,04,19,13,04,11.20
2011,04,19,13,05,11.20
2011,04,19,13,06,11.10
2011,04,19,13,07,11.00
2011,04,19,13,08,11.10
2011,04,19,13,09,11.10
2011,04,19,13,10,11.10
2011,04,19,13,11,11.20
2011,04,19,13,12,11.40
2011,04,19,13,13,11.30
2011,04,19,13,14,11.30
2011,04,19,13,15,11.30
2011,04,19,13,16,11.40
2011,04,19,13,17,11.40
2011,04,19,13,18,11.50
2011,04,19,13,19,11.50
2011,04,19,13,20,11.40
2011,04,19,13,21,11.30
2011,04,19,13,22,11.30
2011,04,19,13,23,11.20
2011,04,19,13,24,11.20
2011,04,19,13,25,11.30
2011,04,19,13,26,11.30
2011,04,19,13,27,11.30
2011,04,19,13,28,11.20
2011,04,19,13,29,11.10
2011,04,19,13,30,11.00
2011,04,19,13,31,10.90
2011,04,19,13,32,10.90
2011,04,19,13,33,10.90
2011,04,19,13,34,11.10
2011,04,19,13,35,11.30
2011,04,19,13,36,11.30
2011,04,19,13,37,11.20
2011,04,19,13,38,11.20
2011,04,19,13,39,11.20
2011,04,19,13,40,11.20
2011,04,19,13,41,11.20
2011,04,19,13,42,11.30
2011,04,19,13,43,11.30
2011,04,19,13,44,11.40
2011,04,19,13,45,11.50
2011,04,19,13,46,11.50
2011,04,19,13,47,11.50
2011,04,19,13,48,11.30
2011,04,19,13,49,11.20
2011,04,19,13,50,11.00
2011,04,19,13,51,11.10
2011,04,19,13,52,11.30
2011,04,19,13,53,11.30
2011,04,19,13,54,11.30
2011,04,19,13,55,11.30
2011,04,19,13,56,11.30
2011,04,19,13,57,11.30
2011,04,19,13,58,11.40
2011,04,19,13,59,11.50
2011,04,19,14,00,11.60
2011,04,19,14,01,11.50
2011,04,19,14,02,11.50
2011,04,19,14,03,11.40
2011,04,19,14,04,11.20
2011,04,19,14,05,11.00
2011,04,19,14,06,10.90
2011,04,19,14,07,10.80
2011,04,19,14,08,11.00
2011,04,19,14,09,11.10
2011,04,19,14,10,11.30
2011,04,19,14,11,11.50
2011,04,19,14,12,11.70
2011,04,19,14,13,11.90
2011,04,19,14,14,12.10
2011,04,19,14,15,12.30
2011,04,19,14,16,12.40
2011,04,19,14,17,12.40
2011,04,19,14,18,12.50
2011,04,19,14,19,12.50
2011,04,19,14,20,12.30
2011,04,19,14,21,12.30
2011,04,19,14,22,12.20
2011,04,19,14,23,12.00
2011,04,19,14,24,11.90
2011,04,19,14,25,11.70
2011,04,19,14,26,11.70
2011,04,19,14,27,11.70
2011,04,19,14,28,11.70
2011,04,19,14,29,11.80
2011,04,19,14,30,11.80
2011,04,19,14,31,11.90
2011,04,19,14,32,12.20
2011,04,19,14,33,12.30
2011,04,19,14,34,12.40
2011,04,19,14,35,12.50
2011,04,19,14,36,12.30
2011,04,19,14,37,12.10
2011,04,19,14,38,11.90
2011,04,19,14,39,11.80
2011,04,19,14,40,11.60
2011,04,19,14,41,11.50
2011,04,19,14,42,11.30
2011,04,19,14,43,11.20
2011,04,19,14,44,11.00
2011,04,19,14,45,10.90
2011,04,19,14,46,10.80
2011,04,19,14,47,10.80
2011,04,19,14,48,10.70
2011,04,19,14,49,10.70
2011,04,19,14,50,10.80
2011,04,19,14,51,10.80
2011,04,19,14,52,11.00
2011,04,19,14,53,11.10
2011,04,19,14,54,11.20
2011,04,19,14,55,11.30
2011,04,19,14,56,11.40
2011,04,19,14,57,11.60
2011,04,19,14,58,11.70
2011,04,19,14,59,11.80
2011,04,19,15,00,11.90
2011,04,19,15,01,12.10
2011,04,19,15,02,12.20
2011,04,19,15,03,12.20
2011,04,19,15,04,12.20
2011,04,19,15,05,12.30
2011,04,19,15,06,12.30
2011,04,19,15,07,12.20
2011,04,19,15,08,12.20
2011,04,19,15,09,12.20
2011,04,19,15,10,12.20
2011,04,19,15,11,12.10
2011,04,19,15,12,12.00
2011,04,19,15,13,12.00
2011,04,19,15,14,11.90
2011,04,19,15,15,11.80
2011,04,19,15,16,11.80
2011,04,19,15,17,11.70
2011,04,19,15,18,11.80
2011,04,19,15,19,11.80
2011,04,19,15,20,11.70
2011,04,19,15,21,11.60
2011,04,19,15,22,11.60
2011,04,19,15,23,11.60
2011,04,19,15,24,11.70
2011,04,19,15,25,11.70
2011,04,19,15,26,11.70
2011,04,19,15,27,11.70
2011,04,19,15,28,11.90
2011,04,19,15,29,12.00
2011,04,19,15,30,12.10
2011,04,19,15,31,12.10
2011,04,19,15,32,12.10
2011,04,19,15,33,12.00
2011,04,19,15,34,11.90
2011,04,19,15,35,11.80
2011,04,19,15,36,11.80
2011,04,19,15,37,11.80
2011,04,19,15,38,11.70
2011,04,19,15,39,11.70
2011,04,19,15,40,11.60
2011,04,19,15,41,11.60
2011,04,19,15,42,11.50
2011,04,19,15,43,11.40
2011,04,19,15,44,11.40
2011,04,19,15,45,11.50
2011,04,19,15,46,11.60
2011,04,19,15,47,11.60
2011,04,19,15,48,11.60
2011,04,19,15,49,11.70
2011,04,19,15,50,11.70
2011,04,19,15,51,11.70
2011,04,19,15,52,11.90
2011,04,19,15,53,12.00
2011,04,19,15,54,11.90
2011,04,19,15,55,11.80
2011,04,19,15,56,11.80
2011,04,19,15,57,11.80
2011,04,19,15,58,11.80
2011,04,19,15,59,11.70
2011,04,19,16,00,11.50
2011,04,19,16,01,11.40
2011,04,19,16,02,11.30
2011,04,19,16,03,11.10
2011,04,19,16,04,11.10
2011,04,19,16,05,11.10
2011,04,19,16,06,11.10
2011,04,19,16,07,11.10
2011,04,19,16,08,11.20
2011,04,19,16,09,11.40
2011,04,19,16,10,11.50
2011,04,19,16,11,11.70
2011,04,19,16,12,11.60
2011,04,19,16,13,11.60
2011,04,19,16,14,11.50
2011,04,19,16,15,11.40
2011,04,19,16,16,11.50
2011,04,19,16,17,11.30
2011,04,19,16,18,11.10
2011,04,19,16,19,11.00
2011,04,19,16,20,10.90
2011,04,19,16,21,11.00
2011,04,19,16,22,11.00
2011,04,19,16,23,11.10
2011,04,19,16,24,11.10
2011,04,19,16,25,11.30
2011,04,19,16,26,11.40
2011,04,19,16,27,11.40
2011,04,19,16,28,11.50
2011,04,19,16,29,11.60
2011,04,19,16,30,11.60
2011,04,19,16,31,11.60
2011,04,19,16,32,11.70
2011,04,19,16,33,11.60
2011,04,19,16,34,11.60
2011,04,19,16,35,11.50
2011,04,19,16,36,11.50
2011,04,19,16,37,11.50
2011,04,19,16,38,11.50
2011,04,19,16,39,11.40
2011,04,19,16,40,11.30
2011,04,19,16,41,11.20
2011,04,19,16,42,11.10
2011,04,19,16,43,11.10
2011,04,19,16,44,11.20
2011,04,19,16,45,11.30
2011,04,19,16,46,11.40
2011,04,19,16,47,11.50
2011,04,19,16,48,11.50
2011,04,19,16,49,11.40
2011,04,19,16,50,11.30
2011,04,19,16,51,11.30
2011,04,19,16,52,11.20
2011,04,19,16,53,11.20
2011,04,19,16,54,11.10
2011,04,19,16,55,11.10
2011,04,19,16,56,11.10
2011,04,19,16,57,11.10
2011,04,19,16,58,11.20
2011,04,19,16,59,11.30
2011,04,19,17,00,11.40
2011,04,19,17,01,11.40
2011,04,19,17,02,11.50
2011,04,19,17,03,11.40
2011,04,19,17,04,11.50
2011,04,19,17,05,11.50
2011,04,19,17,06,11.60
2011,04,19,17,07,11.60
2011,04,19,17,08,11.40
2011,04,19,17,09,11.40
2011,04,19,17,10,11.30
2011,04,19,17,11,11.20
2011,04,19,17,12,11.20
2011,04,19,17,13,11.20
2011,04,19,17,14,11.10
2011,04,19,17,15,11.10
2011,04,19,17,16,11.20
2011,04,19,17,17,11.30
2011,04,19,17,18,11.30
2011,04,19,17,19,11.30
2011,04,19,17,20,11.40
2011,04,19,17,21,11.40
2011,04,19,17,22,11.50
2011,04,19,17,23,11.50
2011,04,19,17,24,11.50
2011,04,19,17,25,11.50
2011,04,19,17,26,11.40
2011,04,19,17,27,11.40
2011,04,19,17,28,11.40
2011,04,19,17,29,11.40
2011,04,19,17,30,11.40
2011,04,19,17,31,11.40
2011,04,19,17,32,11.30
2011,04,19,17,33,11.40
2011,04,19,17,34,11.40
2011,04,19,17,35,11.30
2011,04,19,17,36,11.40
2011,04,19,17,37,11.40
2011,04,19,17,38,11.40
2011,04,19,17,39,11.40
2011,04,19,17,40,11.50
2011,04,19,17,41,11.50
2011,04,19,17,42,11.60
2011,04,19,17,43,11.50
2011,04,19,17,44,11.40
2011,04,19,17,45,11.40
2011,04,19,17,46,11.40
2011,04,19,17,47,11.40
2011,04,19,17,48,11.40
2011,04,19,17,49,11.40
2011,04,19,17,50,11.40
2011,04,19,17,51,11.40